Theta_e
280 281 281 281 282 282 282 282 283 283 284 287 287 287 287 288 288 290 290 288 288 291
280 280 280 280 281 281 282 282 282 283 283 284 285 285 285 286 285 286 286 287 286 288
280 280 280 280 279 280 280 282 282 282 283 283 283 284 284 285 285 285 286 287 286 287
279 279 279 279 280 280 281 281 282 282 281 281 282 283 283 283 284 285 286 288 287 288
278 278 279 279 280 281 281 282 281 281 281 281 282 281 281 281 283 283 284 286 286 286
277 278 277 279 280 281 281 281 282 281 280 280 280 280 280 281 281 282 282 283 284 285
276 277 278 279 279 279 281 281 281 281 281 280 280 280 280 280 281 281 281 281 282 283
276 277 277 278 278 280 280 281 281 281 281 282 282 282 280 280 280 280 280 280 280 280
277 277 277 278 278 279 280 280 281 280 281 281 283 283 282 280 279 278 278 278 278 279
277 277 277 278 277 277 278 279 279 279 281 281 282 282 282 280 278 277 277 277 277 277
277 277 277 277 276 277 279 278 278 278 279 280 281 281 279 278 277 277 276 277 278 278
277 276 277 276 276 278 278 278 278 278 278 278 279 280 280 278 278 277 277 278 279 278
276 276 276 276 276 277 277 277 277 277 277 278 278 280 279 278 278 277 277 278 279 280
276 275 276 276 275 275 275 275 275 275 276 276 277 279 280 279 277 277 277 277 277 278
Wind_Speed
8 6 7 9 9 8 8 9 12 12 13 13 13 11 10 8 8 9 8 9 6 7
7 7 8 9 9 8 9 8 10 10 11 11 11 10 9 8 9 8 8 8 6 5
8 7 7 7 9 10 10 10 10 10 10 10 10 9 8 8 9 9 7 6 5 6
7 7 6 6 7 8 8 9 9 9 10 9 10 9 9 9 9 9 8 6 6 7
7 7 6 6 7 8 8 8 9 9 9 9 9 8 7 8 6 6 7 4 4 6
6 6 7 7 8 7 6 7 8 8 8 8 7 7 7 6 5 5 4 5 5 5
6 6 6 7 7 8 7 6 6 7 7 7 7 6 6 5 4 4 4 4 5 5
6 6 6 6 6 7 7 7 7 7 7 6 5 4 4 3 4 4 5 6 5 6
5 5 5 5 5 6 6 7 7 6 7 7 5 11 11 8 7 8 8 6 6 7
3 4 5 5 5 5 6 6 6 6 7 7 7 12 12 11 6 7 7 6 6 5
2 2 3 4 4 4 4 5 5 5 6 6 7 9 8 6 4 4 4 5 4 3
4 4 3 3 3 3 3 3 4 5 5 5 6 8 7 5 4 4 6 6 6 5
5 5 5 4 4 3 4 3 3 3 4 3 4 5 5 4 2 3 3 4 6 9
6 6 5 4 4 4 4 4 4 4 4 5 4 4 5 2 1 0 0 1 1 3
Wind_Direction
284 282 291 288 293 294 296 296 296 298 295 295 293 289 284 279 279 285 275 270 267 282
290 292 291 296 294 293 296 295 292 294 292 289 286 284 281 274 274 269 270 267 265 270
301 296 298 297 295 296 289 288 293 292 289 290 290 290 287 284 279 271 271 262 267 270
308 309 303 289 293 288 291 291 292 294 290 289 291 296 292 285 283 275 278 262 254 265
315 314 313 313 312 310 314 317 313 307 307 306 311 302 290 298 295 294 292 285 288 278
321 327 324 327 323 330 332 331 324 324 326 317 309 310 312 299 302 302 312 324 313 306
327 327 324 325 327 334 340 351 343 337 325 327 323 321 320 327 350 29 23 15 1 337
325 327 322 333 340 344 353 360 8 350 351 348 330 331 348 6 38 53 52 45 32 15
327 329 344 348 354 9 10 18 27 14 6 12 32 37 42 41 40 42 42 36 28 22
334 338 344 348 4 3 4 5 15 14 6 22 24 37 45 44 49 56 42 34 29 20
234 262 309 329 345 347 355 358 356 12 10 16 32 30 34 45 62 67 59 38 59 41
230 249 249 261 293 309 321 334 333 343 356 4 19 24 31 44 49 43 44 39 35 38
234 238 244 252 266 275 276 277 278 296 319 330 337 356 28 9 9 28 17 24 25 38
227 234 245 251 258 274 282 284 287 293 290 293 304 318 336 17 309 221 284 331 347 358